START_TIME,STEP,MOV.,A46,t_acc.,A13,t_acc.,M47,t_acc.,A17,t_acc.,A28,t_acc.,M38,t_acc.
1986-01-25 21:00:26.860 ,5,0,,0,0.,4.8,0.,4.8,,0,0.,4.8,0.,4.8
1986-01-25 21:00:31.660 ,5,0,,0,0.,4.8,0.,4.8,,0,0.,4.8,0.,4.8
1986-01-25 21:00:36.460 ,5,0,,0,0.,4.8,0.,4.8,,0,0.,4.8,0.,4.8
1986-01-25 21:00:41.260 ,5,0,,0,1.,4.8,0.,4.8,,0,0.,4.8,0.,4.8
1986-01-25 21:00:46.060 ,5,0,,0,0.,4.8,0.,4.8,,0,0.,4.8,0.,4.8
1986-01-25 21:00:50.850 ,4,0,,0,0.,4.8,0.,4.8,,0,0.,4.8,0.,4.8
1986-01-25 21:00:55.660 ,4,0,,0,2.,4.8,0.,4.8,,0,0.,4.8,0.,4.8
1986-01-25 21:01:00.460 ,4,0,,0,0.,4.8,0.,4.8,,0,0.,4.8,0.,4.8
1986-01-25 21:01:05.260 ,4,0,,0,0.,4.8,0.,4.8,,0,0.,4.8,0.,4.8
1986-01-25 21:01:10.060 ,4,0,,0,0.,4.8,0.,4.8,,0,0.,4.8,0.,4.8
1986-01-25 21:01:14.860 ,4,0,,0,1.,4.8,0.,4.8,,0,0.,4.8,0.,4.8
1986-01-25 21:01:19.660 ,4,0,,0,0.,4.8,0.,4.8,,0,0.,4.8,0.,4.8
1986-01-25 21:01:24.460 ,4,0,,0,0.,4.8,0.,4.8,,0,0.,4.8,0.,4.8
1986-01-25 21:01:29.260 ,4,0,,0,1.,4.8,0.,4.8,,0,0.,4.8,0.,4.8
1986-01-25 21:01:34.060 ,4,0,,0,0.,4.8,0.,4.8,,0,0.,4.8,0.,4.8
1986-01-25 21:01:38.860 ,3,0,,0,0.,4.8,0.,4.8,,0,0.,4.8,0.,4.8
1986-01-25 21:01:43.660 ,3,0,,0,0.,4.8,0.,4.8,,0,0.,4.8,0.,4.8
1986-01-25 21:01:48.460 ,3,0,,0,1.,4.8,0.,4.8,,0,0.,4.8,0.,4.8
1986-01-25 21:01:53.260 ,3,0,,0,0.,4.8,0.,4.8,,0,0.,4.8,0.,4.8
1986-01-25 21:01:58.060 ,3,0,,0,0.,4.8,0.,4.8,,0,0.,4.8,0.,4.8
1986-01-25 21:02:02.860 ,3,0,,0,0.,4.8,0.,4.8,,0,0.,4.8,0.,4.8
1986-01-25 21:02:07.660 ,3,0,,0,0.,4.8,0.,4.8,,0,0.,4.8,0.,4.8
1986-01-25 21:02:12.460 ,3,0,,0,1.,4.8,0.,4.8,,0,0.,4.8,0.,4.8
1986-01-25 21:02:17.260 ,3,0,,0,0.,4.8,0.,4.8,,0,0.,4.8,0.,4.8
1986-01-25 21:02:22.060 ,3,0,,0,0.,4.8,0.,4.8,,0,0.,4.8,0.,4.8
1986-01-25 21:02:26.850 ,2,0,,0,0.,4.8,0.,4.8,,0,0.,4.8,0.,4.8
1986-01-25 21:02:31.650 ,2,0,,0,1.,4.8,0.,4.8,,0,0.,4.8,0.,4.8
1986-01-25 21:02:36.460 ,2,0,,0,0.,4.8,0.,4.8,,0,0.,4.8,0.,4.8
1986-01-25 21:02:41.260 ,2,0,,0,0.,4.8,0.,4.8,,0,0.,4.8,0.,4.8
1986-01-25 21:02:46.060 ,2,0,,0,0.,4.8,0.,4.8,,0,0.,4.8,0.,4.8
1986-01-25 21:02:50.850 ,2,0,,0,0.,4.8,0.,4.8,,0,0.,4.8,0.,4.8
1986-01-25 21:02:55.650 ,2,0,,0,0.,4.8,0.,4.8,,0,0.,4.8,0.,4.8
1986-01-25 21:03:00.460 ,2,0,,0,0.,4.8,0.,4.8,,0,0.,4.8,0.,4.8
1986-01-25 21:03:05.260 ,2,0,,0,0.,4.8,0.,4.8,,0,0.,4.8,0.,4.8
1986-01-25 21:03:10.060 ,2,0,,0,1.,4.8,0.,4.8,,0,0.,4.8,0.,4.8
1986-01-25 21:03:14.850 ,1,0,,0,0.,4.8,0.,4.8,,0,0.,4.8,0.,4.8
1986-01-25 21:03:19.650 ,1,0,,0,0.,4.8,0.,4.8,,0,0.,4.8,0.,4.8
1986-01-25 21:03:24.460 ,1,0,,0,0.,4.8,0.,4.8,,0,0.,4.8,0.,4.8
1986-01-25 21:03:29.260 ,1,0,,0,0.,4.8,0.,4.8,,0,0.,4.8,0.,4.8
1986-01-25 21:03:34.060 ,1,0,,0,0.,4.8,0.,4.8,,0,0.,4.8,0.,4.8
1986-01-25 21:03:38.850 ,1,0,,0,0.,4.8,0.,4.8,,0,0.,4.8,0.,4.8
1986-01-25 21:03:43.650 ,1,0,,0,0.,4.8,0.,4.8,,0,0.,4.8,0.,4.8
1986-01-25 21:03:48.460 ,1,0,,0,0.,4.8,0.,4.8,,0,0.,4.8,0.,4.8
1986-01-25 21:03:53.260 ,1,0,,0,0.,4.8,0.,4.8,,0,0.,4.8,0.,4.8
1986-01-25 21:03:58.060 ,1,0,,0,1.,4.8,0.,4.8,,0,0.,4.8,0.,4.8
1986-01-25 21:04:02.850 ,0,0,,0,0.,4.8,0.,4.8,,0,0.,4.8,0.,4.8
1986-01-25 21:04:07.650 ,0,0,,0,0.,4.8,0.,4.8,,0,0.,4.8,0.,4.8
1986-01-25 21:04:12.460 ,0,0,,0,0.,4.8,0.,4.8,,0,0.,4.8,0.,4.8
1986-01-25 21:04:17.260 ,0,0,,0,0.,4.8,0.,4.8,,0,0.,4.8,0.,4.8
1986-01-25 21:04:22.050 ,0,0,,0,0.,4.8,0.,4.8,,0,0.,4.8,0.,4.8
1986-01-25 21:04:26.860 ,0,0,,0,0.,4.8,0.,4.8,,0,0.,4.8,0.,4.8
1986-01-25 21:04:31.660 ,0,0,,0,0.,4.8,0.,4.8,,0,0.,4.8,0.,4.8
1986-01-25 21:04:36.460 ,0,0,,0,0.,4.8,0.,4.8,,0,0.,4.8,0.,4.8
1986-01-25 21:04:41.260 ,0,0,,0,0.,4.8,0.,4.8,,0,0.,4.8,0.,4.8
1986-01-25 21:04:46.060 ,0,0,,0,1.,4.8,0.,4.8,,0,0.,4.8,0.,4.8
1986-01-25 21:04:50.850 ,0,0,,0,1.,4.8,0.,4.8,,0,0.,4.8,0.,4.8
1986-01-25 21:04:55.650 ,0,0,,0,0.,4.8,0.,4.8,,0,0.,4.8,0.,4.8
1986-01-25 21:05:00.450 ,0,0,,0,0.,4.8,0.,4.8,,0,0.,4.8,0.,4.8
1986-01-25 21:05:05.250 ,0,0,,0,0.,4.8,0.,4.8,,0,0.,4.8,0.,4.8
1986-01-25 21:05:10.050 ,0,0,,0,0.,4.8,0.,4.8,,0,0.,4.8,0.,4.8
1986-01-25 21:05:14.850 ,0,0,,0,0.,4.8,0.,4.8,,0,0.,4.8,0.,4.8
1986-01-25 21:05:19.650 ,0,0,,0,0.,4.8,0.,4.8,,0,0.,4.8,0.,4.8
1986-01-25 21:05:24.450 ,0,0,,0,1.,4.8,0.,4.8,,0,0.,4.8,0.,4.8
1986-01-25 21:05:29.250 ,0,0,,0,1.,4.8,0.,4.8,,0,0.,4.8,0.,4.8
1986-01-25 21:05:34.050 ,0,0,,0,0.,4.8,0.,4.8,,0,0.,4.8,0.,4.8
1986-01-25 21:05:38.850 ,1,0,,0,1.,4.8,0.,4.8,,0,0.,4.8,0.,4.8
1986-01-25 21:05:43.650 ,1,0,,0,0.,4.8,0.,4.8,,0,0.,4.8,0.,4.8
1986-01-25 21:05:48.450 ,1,0,,0,0.,4.8,0.,4.8,,0,0.,4.8,0.,4.8
1986-01-25 21:05:53.250 ,1,0,,0,0.,4.8,0.,4.8,,0,0.,4.8,0.,4.8
1986-01-25 21:05:58.050 ,1,0,,0,0.,4.8,0.,4.8,,0,0.,4.8,0.,4.8
1986-01-25 21:06:02.850 ,1,0,,0,1.,4.8,0.,4.8,,0,0.,4.8,0.,4.8
1986-01-25 21:06:07.650 ,1,0,,0,0.,4.8,0.,4.8,,0,0.,4.8,0.,4.8
1986-01-25 21:06:12.450 ,1,0,,0,0.,4.8,0.,4.8,,0,0.,4.8,0.,4.8
1986-01-25 21:06:17.250 ,1,0,,0,0.,4.8,0.,4.8,,0,0.,4.8,0.,4.8
1986-01-25 21:06:22.050 ,1,0,,0,0.,4.8,0.,4.8,,0,0.,4.8,0.,4.8
1986-01-25 21:06:26.850 ,2,0,,0,2.,4.8,0.,4.8,,0,0.,4.8,0.,4.8
1986-01-25 21:06:31.650 ,2,0,,0,1.,4.8,0.,4.8,,0,0.,4.8,0.,4.8
1986-01-25 21:06:36.450 ,2,0,,0,0.,4.8,0.,4.8,,0,0.,4.8,0.,4.8
1986-01-25 21:06:41.250 ,2,0,,0,0.,4.8,0.,4.8,,0,0.,4.8,0.,4.8
1986-01-25 21:06:46.050 ,2,0,,0,0.,4.8,0.,4.8,,0,0.,4.8,0.,4.8
1986-01-25 21:06:50.850 ,2,0,,0,0.,4.8,0.,4.8,,0,0.,4.8,0.,4.8
1986-01-25 21:06:55.650 ,2,0,,0,0.,4.8,0.,4.8,,0,0.,4.8,0.,4.8
1986-01-25 21:07:00.450 ,2,0,,0,0.,4.8,0.,4.8,,0,0.,4.8,0.,4.8
1986-01-25 21:07:05.250 ,2,0,,0,0.,4.8,0.,4.8,,0,0.,4.8,0.,4.8
1986-01-25 21:07:10.050 ,2,0,,0,3.,4.8,0.,4.8,,0,0.,4.8,0.,4.8
1986-01-25 21:07:14.850 ,3,0,,0,0.,4.8,0.,4.8,,0,0.,4.8,0.,4.8
1986-01-25 21:07:19.650 ,3,0,,0,1.,4.8,0.,4.8,,0,0.,4.8,0.,4.8
1986-01-25 21:07:24.450 ,3,0,,0,1.,4.8,0.,4.8,,0,0.,4.8,0.,4.8
1986-01-25 21:07:29.250 ,3,0,,0,0.,4.8,0.,4.8,,0,0.,4.8,0.,4.8
1986-01-25 21:07:34.050 ,3,0,,0,0.,4.8,0.,4.8,,0,0.,4.8,0.,4.8
1986-01-25 21:07:38.850 ,3,0,,0,0.,4.8,0.,4.8,,0,0.,4.8,0.,4.8
1986-01-25 21:07:43.650 ,3,0,,0,0.,4.8,0.,4.8,,0,0.,4.8,0.,4.8
1986-01-25 21:07:48.450 ,3,0,,0,0.,4.8,0.,4.8,,0,0.,4.8,0.,4.8
1986-01-25 21:07:53.250 ,3,0,,0,2.,4.8,0.,4.8,,0,0.,4.8,0.,4.8
1986-01-25 21:07:58.050 ,3,0,,0,1.,4.8,0.,4.8,,0,0.,4.8,0.,4.8
1986-01-25 21:08:02.850 ,4,0,,0,0.,4.8,0.,4.8,,0,0.,4.8,0.,4.8
1986-01-25 21:08:07.650 ,4,0,,0,1.,4.8,0.,4.8,,0,0.,4.8,0.,4.8
1986-01-25 21:08:12.450 ,4,0,,0,1.,4.8,0.,4.8,,0,0.,4.8,0.,4.8
1986-01-25 21:08:17.250 ,4,0,,0,0.,4.8,0.,4.8,,0,0.,4.8,0.,4.8
1986-01-25 21:08:22.050 ,4,0,,0,0.,4.8,0.,4.8,,0,0.,4.8,0.,4.8
1986-01-25 21:08:26.850 ,4,0,,0,0.,4.8,0.,4.8,,0,0.,4.8,0.,4.8
1986-01-25 21:08:31.650 ,4,0,,0,0.,4.8,0.,4.8,,0,0.,4.8,0.,4.8
1986-01-25 21:08:36.450 ,4,0,,0,1.,4.8,0.,4.8,,0,0.,4.8,0.,4.8
1986-01-25 21:08:41.250 ,4,0,,0,1.,4.8,0.,4.8,,0,0.,4.8,0.,4.8
1986-01-25 21:08:46.050 ,4,0,,0,0.,4.8,0.,4.8,,0,0.,4.8,0.,4.8
1986-01-25 21:08:50.850 ,5,0,,0,0.,4.8,0.,4.8,,0,0.,4.8,0.,4.8
1986-01-25 21:08:55.650 ,5,0,,0,0.,4.8,0.,4.8,,0,0.,4.8,0.,4.8
1986-01-25 21:09:00.450 ,5,0,,0,0.,4.8,0.,4.8,,0,0.,4.8,0.,4.8
1986-01-25 21:09:05.250 ,5,0,,0,0.,4.8,0.,4.8,,0,0.,4.8,0.,4.8
1986-01-25 21:09:10.050 ,5,0,,0,0.,4.8,0.,4.8,,0,0.,4.8,0.,4.8
1986-01-25 21:09:14.850 ,5,0,,0,0.,4.8,0.,4.8,,0,0.,4.8,0.,4.8
1986-01-25 21:09:19.650 ,5,0,,0,0.,4.8,0.,4.8,,0,0.,4.8,0.,4.8
1986-01-25 21:09:24.450 ,5,0,,0,0.,4.8,0.,4.8,,0,0.,4.8,0.,4.8
1986-01-25 21:09:29.250 ,5,0,,0,2.,4.8,0.,4.8,,0,0.,4.8,0.,4.8
1986-01-25 21:09:34.050 ,5,0,,0,1.,4.8,0.,4.8,,0,0.,4.8,0.,4.8
1986-01-25 21:09:38.850 ,6,0,,0,1.,4.8,0.,4.8,,0,0.,4.8,0.,4.8
1986-01-25 21:09:43.650 ,6,0,,0,1.,4.8,0.,4.8,,0,0.,4.8,0.,4.8
1986-01-25 21:09:48.450 ,6,0,,0,0.,4.8,0.,4.8,,0,0.,4.8,0.,4.8
1986-01-25 21:09:53.250 ,6,0,,0,0.,4.8,0.,4.8,,0,0.,4.8,0.,4.8
1986-01-25 21:09:58.050 ,6,0,,0,0.,4.8,0.,4.8,,0,0.,4.8,0.,4.8
1986-01-25 21:10:02.850 ,6,0,,0,0.,4.8,0.,4.8,,0,0.,4.8,0.,4.8
1986-01-25 21:10:07.650 ,6,0,,0,0.,4.8,0.,4.8,,0,0.,4.8,0.,4.8
1986-01-25 21:10:12.450 ,6,0,,0,0.,4.8,0.,4.8,,0,0.,4.8,0.,4.8
1986-01-25 21:10:17.250 ,6,0,,0,0.,4.8,0.,4.8,,0,0.,4.8,0.,4.8
1986-01-25 21:10:22.050 ,6,0,,0,0.,4.8,0.,4.8,,0,0.,4.8,0.,4.8
1986-01-25 21:10:26.850 ,7,0,,0,0.,4.8,0.,4.8,,0,0.,4.8,0.,4.8
1986-01-25 21:10:31.650 ,7,0,,0,0.,4.8,0.,4.8,,0,0.,4.8,0.,4.8
1986-01-25 21:10:36.450 ,7,0,,0,3.,4.8,0.,4.8,,0,0.,4.8,0.,4.8
1986-01-25 21:10:41.250 ,7,0,,0,6.,4.8,0.,4.8,,0,0.,4.8,0.,4.8
1986-01-25 21:10:46.050 ,7,0,,0,8.,4.8,0.,4.8,,0,0.,4.8,0.,4.8
1986-01-25 21:10:50.850 ,7,0,,0,6.,4.8,0.,4.8,,0,0.,4.8,0.,4.8
1986-01-25 21:10:55.650 ,7,0,,0,6.,4.8,0.,4.8,,0,0.,4.8,0.,4.8
1986-01-25 21:11:00.450 ,7,0,,0,11.,4.8,0.,4.8,,0,0.,4.8,0.,4.8
1986-01-25 21:11:05.250 ,7,0,,0,0.,4.8,0.,4.8,,0,0.,4.8,0.,4.8
1986-01-25 21:11:10.050 ,7,0,,0,0.,4.8,0.,4.8,,0,0.,4.8,0.,4.8
1986-01-25 21:11:14.850 ,7,0,,0,1.,4.8,0.,4.8,,0,0.,4.8,0.,4.8
1986-01-25 21:11:19.650 ,7,0,,0,1.,4.8,0.,4.8,,0,0.,4.8,0.,4.8
1986-01-25 21:11:24.450 ,7,0,,0,3.,4.8,0.,4.8,,0,0.,4.8,0.,4.8
1986-01-25 21:11:29.250 ,7,0,,0,5.,4.8,0.,4.8,,0,0.,4.8,0.,4.8
1986-01-25 21:11:34.050 ,7,0,,0,5.,4.8,0.,4.8,,0,0.,4.8,0.,4.8
1986-01-25 21:11:38.850 ,7,0,,0,4.,4.8,0.,4.8,,0,0.,4.8,0.,4.8
1986-01-25 21:11:43.650 ,7,0,,0,2.,4.8,0.,4.8,,0,0.,4.8,0.,4.8
1986-01-25 21:11:48.450 ,7,0,,0,6.,4.8,0.,4.8,,0,0.,4.8,0.,4.8
1986-01-25 21:11:53.250 ,7,0,,0,0.,4.8,0.,4.8,,0,0.,4.8,0.,4.8
1986-01-25 21:11:58.050 ,7,0,,0,1.,4.8,0.,4.8,,0,0.,4.8,0.,4.8
1986-01-25 21:12:02.850 ,6,0,,0,0.,4.8,0.,4.8,,0,0.,4.8,0.,4.8
1986-01-25 21:12:07.650 ,6,0,,0,0.,4.8,0.,4.8,,0,0.,4.8,0.,4.8
1986-01-25 21:12:12.450 ,6,0,,0,1.,4.8,0.,4.8,,0,0.,4.8,0.,4.8
1986-01-25 21:12:17.250 ,6,0,,0,0.,4.8,0.,4.8,,0,0.,4.8,0.,4.8
1986-01-25 21:12:22.050 ,6,0,,0,0.,4.8,0.,4.8,,0,0.,4.8,0.,4.8
1986-01-25 21:12:26.850 ,6,0,,0,0.,4.8,0.,4.8,,0,0.,4.8,0.,4.8
1986-01-25 21:12:31.650 ,6,0,,0,1.,4.8,0.,4.8,,0,0.,4.8,0.,4.8
1986-01-25 21:12:36.450 ,6,0,,0,0.,4.8,0.,4.8,,0,0.,4.8,0.,4.8
1986-01-25 21:12:41.250 ,6,0,,0,0.,4.8,0.,4.8,,0,0.,4.8,0.,4.8
1986-01-25 21:12:46.050 ,6,0,,0,0.,4.8,0.,4.8,,0,0.,4.8,0.,4.8
1986-01-25 21:12:50.850 ,5,0,,0,0.,4.8,0.,4.8,,0,0.,4.8,0.,4.8
1986-01-25 21:12:55.650 ,5,0,,0,1.,4.8,0.,4.8,,0,0.,4.8,0.,4.8
1986-01-25 21:13:00.450 ,5,0,,0,2.,4.8,0.,4.8,,0,0.,4.8,0.,4.8
1986-01-25 21:13:05.250 ,5,0,,0,0.,4.8,0.,4.8,,0,0.,4.8,0.,4.8
1986-01-25 21:13:10.050 ,5,0,,0,0.,4.8,0.,4.8,,0,0.,4.8,0.,4.8
1986-01-25 21:13:14.850 ,5,0,,0,0.,4.8,0.,4.8,,0,0.,4.8,0.,4.8
1986-01-25 21:13:19.650 ,5,0,,0,0.,4.8,0.,4.8,,0,0.,4.8,0.,4.8
1986-01-25 21:13:24.450 ,5,0,,0,0.,4.8,0.,4.8,,0,0.,4.8,0.,4.8
1986-01-25 21:13:29.250 ,5,0,,0,1.,4.8,0.,4.8,,0,0.,4.8,0.,4.8
1986-01-25 21:13:34.050 ,5,0,,0,1.,4.8,0.,4.8,,0,0.,4.8,0.,4.8
1986-01-25 21:13:38.850 ,4,0,,0,1.,4.8,0.,4.8,,0,0.,4.8,0.,4.8
1986-01-25 21:13:43.650 ,4,0,,0,0.,4.8,0.,4.8,,0,0.,4.8,0.,4.8
1986-01-25 21:13:48.450 ,4,0,,0,0.,4.8,0.,4.8,,0,0.,4.8,0.,4.8
1986-01-25 21:13:53.250 ,4,0,,0,0.,4.8,0.,4.8,,0,0.,4.8,0.,4.8
1986-01-25 21:13:58.050 ,4,0,,0,0.,4.8,0.,4.8,,0,0.,4.8,0.,4.8
1986-01-25 21:14:02.850 ,4,0,,0,0.,4.8,0.,4.8,,0,0.,4.8,0.,4.8
1986-01-25 21:14:07.650 ,4,0,,0,0.,4.8,0.,4.8,,0,0.,4.8,0.,4.8
1986-01-25 21:14:12.450 ,4,0,,0,0.,4.8,0.,4.8,,0,0.,4.8,0.,4.8
1986-01-25 21:14:17.250 ,4,0,,0,0.,4.8,0.,4.8,,0,0.,4.8,0.,4.8
1986-01-25 21:14:22.050 ,4,0,,0,0.,4.8,0.,4.8,,0,0.,4.8,0.,4.8
1986-01-25 21:14:26.850 ,3,0,,0,0.,4.8,0.,4.8,,0,0.,4.8,0.,4.8
1986-01-25 21:14:31.650 ,3,0,,0,2.,4.8,0.,4.8,,0,0.,4.8,0.,4.8
1986-01-25 21:14:36.450 ,3,0,,0,0.,4.8,0.,4.8,,0,0.,4.8,0.,4.8
1986-01-25 21:14:41.250 ,3,0,,0,0.,4.8,0.,4.8,,0,0.,4.8,0.,4.8
1986-01-25 21:14:46.050 ,3,0,,0,0.,4.8,0.,4.8,,0,0.,4.8,0.,4.8
1986-01-25 21:14:50.850 ,3,0,,0,0.,4.8,0.,4.8,,0,0.,4.8,0.,4.8
1986-01-25 21:14:55.650 ,3,0,,0,0.,4.8,0.,4.8,,0,0.,4.8,0.,4.8
1986-01-25 21:15:00.450 ,3,0,,0,0.,4.8,0.,4.8,,0,0.,4.8,0.,4.8
1986-01-25 21:15:05.250 ,3,0,,0,0.,4.8,0.,4.8,,0,0.,4.8,0.,4.8
1986-01-25 21:15:10.050 ,3,0,,0,1.,4.8,0.,4.8,,0,0.,4.8,0.,4.8
1986-01-25 21:15:14.850 ,2,0,,0,0.,4.8,0.,4.8,,0,0.,4.8,0.,4.8
1986-01-25 21:15:19.650 ,2,0,,0,0.,4.8,0.,4.8,,0,0.,4.8,0.,4.8
1986-01-25 21:15:24.450 ,2,0,,0,2.,4.8,0.,4.8,,0,0.,4.8,0.,4.8
1986-01-25 21:15:29.250 ,2,0,,0,0.,4.8,0.,4.8,,0,0.,4.8,0.,4.8
1986-01-25 21:15:34.050 ,2,0,,0,0.,4.8,0.,4.8,,0,0.,4.8,0.,4.8
1986-01-25 21:15:38.850 ,2,0,,0,0.,4.8,0.,4.8,,0,0.,4.8,0.,4.8
1986-01-25 21:15:43.650 ,2,0,,0,0.,4.8,0.,4.8,,0,0.,4.8,0.,4.8
1986-01-25 21:15:48.450 ,2,0,,0,0.,4.8,0.,4.8,,0,0.,4.8,0.,4.8
1986-01-25 21:15:53.250 ,2,0,,0,0.,4.8,0.,4.8,,0,0.,4.8,0.,4.8
1986-01-25 21:15:58.050 ,2,0,,0,1.,4.8,0.,4.8,,0,0.,4.8,0.,4.8
1986-01-25 21:16:02.850 ,1,0,,0,0.,4.8,0.,4.8,,0,0.,4.8,0.,4.8
1986-01-25 21:16:07.650 ,1,0,,0,0.,4.8,0.,4.8,,0,0.,4.8,0.,4.8
1986-01-25 21:16:12.450 ,1,0,,0,0.,4.8,0.,4.8,,0,0.,4.8,0.,4.8
1986-01-25 21:16:17.250 ,1,0,,0,0.,4.8,0.,4.8,,0,0.,4.8,0.,4.8
1986-01-25 21:16:22.050 ,1,0,,0,0.,4.8,0.,4.8,,0,0.,4.8,0.,4.8
1986-01-25 21:16:26.850 ,1,0,,0,0.,4.8,0.,4.8,,0,0.,4.8,0.,4.8
1986-01-25 21:16:31.650 ,1,0,,0,0.,4.8,0.,4.8,,0,0.,4.8,0.,4.8
1986-01-25 21:16:36.450 ,1,0,,0,0.,4.8,0.,4.8,,0,0.,4.8,0.,4.8
1986-01-25 21:16:41.250 ,1,0,,0,3.,4.8,0.,4.8,,0,0.,4.8,0.,4.8
1986-01-25 21:16:46.050 ,1,0,,0,0.,4.8,0.,4.8,,0,0.,4.8,0.,4.8
1986-01-25 21:16:50.850 ,0,0,,0,0.,4.8,0.,4.8,,0,0.,4.8,0.,4.8
1986-01-25 21:16:55.650 ,0,0,,0,1.,4.8,0.,4.8,,0,0.,4.8,0.,4.8
1986-01-25 21:17:00.450 ,0,0,,0,0.,4.8,0.,4.8,,0,0.,4.8,0.,4.8
1986-01-25 21:17:05.250 ,0,0,,0,1.,4.8,0.,4.8,,0,0.,4.8,0.,4.8
1986-01-25 21:17:10.050 ,0,0,,0,1.,4.8,0.,4.8,,0,0.,4.8,0.,4.8
1986-01-25 21:17:14.850 ,0,0,,0,0.,4.8,0.,4.8,,0,0.,4.8,0.,4.8
1986-01-25 21:17:19.650 ,0,0,,0,0.,4.8,0.,4.8,,0,0.,4.8,0.,4.8
1986-01-25 21:17:24.450 ,0,0,,0,0.,4.8,0.,4.8,,0,0.,4.8,0.,4.8
1986-01-25 21:17:29.250 ,0,0,,0,1.,4.8,0.,4.8,,0,0.,4.8,0.,4.8
1986-01-25 21:17:34.050 ,0,0,,0,2.,4.8,0.,4.8,,0,0.,4.8,0.,4.8
1986-01-25 21:17:38.850 ,0,0,,0,3.,4.8,0.,4.8,,0,0.,4.8,0.,4.8
1986-01-25 21:17:43.650 ,0,0,,0,0.,4.8,0.,4.8,,0,0.,4.8,0.,4.8
1986-01-25 21:17:48.450 ,0,0,,0,0.,4.8,0.,4.8,,0,0.,4.8,0.,4.8
1986-01-25 21:17:53.250 ,0,0,,0,0.,4.8,0.,4.8,,0,0.,4.8,0.,4.8
1986-01-25 21:17:58.050 ,0,0,,0,0.,4.8,0.,4.8,,0,0.,4.8,0.,4.8
1986-01-25 21:18:02.850 ,0,0,,0,0.,4.8,0.,4.8,,0,0.,4.8,0.,4.8
1986-01-25 21:18:07.650 ,0,0,,0,0.,4.8,0.,4.8,,0,0.,4.8,0.,4.8
1986-01-25 21:18:12.450 ,0,0,,0,0.,4.8,0.,4.8,,0,0.,4.8,0.,4.8
1986-01-25 21:18:17.250 ,0,0,,0,1.,4.8,0.,4.8,,0,0.,4.8,0.,4.8
1986-01-25 21:18:22.050 ,0,0,,0,0.,4.8,0.,4.8,,0,0.,4.8,0.,4.8
1986-01-25 21:18:26.850 ,1,0,,0,0.,4.8,0.,4.8,,0,0.,4.8,0.,4.8
1986-01-25 21:18:31.650 ,1,0,,0,0.,4.8,0.,4.8,,0,0.,4.8,0.,4.8
1986-01-25 21:18:36.450 ,1,0,,0,0.,4.8,0.,4.8,,0,0.,4.8,0.,4.8
1986-01-25 21:18:41.250 ,1,0,,0,0.,4.8,0.,4.8,,0,0.,4.8,0.,4.8
1986-01-25 21:18:46.050 ,1,0,,0,0.,4.8,0.,4.8,,0,0.,4.8,0.,4.8
1986-01-25 21:18:50.850 ,1,0,,0,0.,4.8,0.,4.8,,0,0.,4.8,0.,4.8
1986-01-25 21:18:55.650 ,1,0,,0,0.,4.8,0.,4.8,,0,0.,4.8,0.,4.8
1986-01-25 21:19:00.450 ,1,0,,0,0.,4.8,0.,4.8,,0,0.,4.8,0.,4.8
1986-01-25 21:19:05.250 ,1,0,,0,1.,4.8,0.,4.8,,0,0.,4.8,0.,4.8
1986-01-25 21:19:10.050 ,1,0,,0,1.,4.8,0.,4.8,,0,0.,4.8,0.,4.8
1986-01-25 21:19:14.850 ,2,0,,0,0.,4.8,0.,4.8,,0,0.,4.8,0.,4.8
1986-01-25 21:19:19.650 ,2,0,,0,1.,4.8,0.,4.8,,0,0.,4.8,0.,4.8
1986-01-25 21:19:24.450 ,2,0,,0,0.,4.8,0.,4.8,,0,0.,4.8,0.,4.8
1986-01-25 21:19:29.250 ,2,0,,0,0.,4.8,0.,4.8,,0,0.,4.8,0.,4.8
1986-01-25 21:19:34.050 ,2,0,,0,0.,4.8,0.,4.8,,0,0.,4.8,0.,4.8
1986-01-25 21:19:38.850 ,2,0,,0,0.,4.8,0.,4.8,,0,0.,4.8,0.,4.8
1986-01-25 21:19:43.650 ,2,0,,0,0.,4.8,0.,4.8,,0,0.,4.8,0.,4.8
1986-01-25 21:19:48.450 ,2,0,,0,0.,4.8,0.,4.8,,0,0.,4.8,0.,4.8
1986-01-25 21:19:53.250 ,2,0,,0,0.,4.8,0.,4.8,,0,0.,4.8,0.,4.8
1986-01-25 21:19:58.050 ,2,0,,0,1.,4.8,0.,4.8,,0,0.,4.8,0.,4.8
1986-01-25 21:20:02.850 ,3,0,,0,0.,4.8,0.,4.8,,0,0.,4.8,0.,4.8
1986-01-25 21:20:07.650 ,3,0,,0,0.,4.8,0.,4.8,,0,0.,4.8,0.,4.8
1986-01-25 21:20:12.450 ,3,0,,0,0.,4.8,0.,4.8,,0,0.,4.8,0.,4.8
1986-01-25 21:20:17.250 ,3,0,,0,0.,4.8,0.,4.8,,0,0.,4.8,0.,4.8
1986-01-25 21:20:22.050 ,3,0,,0,0.,4.8,0.,4.8,,0,0.,4.8,0.,4.8
1986-01-25 21:20:26.850 ,3,0,,0,0.,4.8,0.,4.8,,0,0.,4.8,0.,4.8
1986-01-25 21:20:31.650 ,3,0,,0,0.,4.8,0.,4.8,,0,0.,4.8,0.,4.8
1986-01-25 21:20:36.450 ,3,0,,0,1.,4.8,0.,4.8,,0,0.,4.8,0.,4.8
1986-01-25 21:20:41.250 ,3,0,,0,0.,4.8,0.,4.8,,0,0.,4.8,0.,4.8
1986-01-25 21:20:46.050 ,3,0,,0,0.,4.8,0.,4.8,,0,0.,4.8,0.,4.8
1986-01-25 21:20:50.850 ,4,0,,0,0.,4.8,0.,4.8,,0,0.,4.8,0.,4.8
1986-01-25 21:20:55.650 ,4,0,,0,1.,4.8,0.,4.8,,0,0.,4.8,0.,4.8
1986-01-25 21:21:00.450 ,4,0,,0,1.,4.8,0.,4.8,,0,0.,4.8,0.,4.8
1986-01-25 21:21:05.250 ,4,0,,0,0.,4.8,0.,4.8,,0,0.,4.8,0.,4.8
1986-01-25 21:21:10.050 ,4,0,,0,0.,4.8,0.,4.8,,0,0.,4.8,0.,4.8
1986-01-25 21:21:14.850 ,4,0,,0,0.,4.8,0.,4.8,,0,0.,4.8,0.,4.8
1986-01-25 21:21:19.650 ,4,0,,0,0.,4.8,0.,4.8,,0,0.,4.8,0.,4.8
1986-01-25 21:21:24.450 ,4,0,,0,0.,4.8,0.,4.8,,0,0.,4.8,0.,4.8
1986-01-25 21:21:29.250 ,4,0,,0,0.,4.8,0.,4.8,,0,0.,4.8,0.,4.8
1986-01-25 21:21:34.050 ,4,0,,0,0.,4.8,0.,4.8,,0,0.,4.8,0.,4.8
1986-01-25 21:21:38.850 ,5,0,,0,1.,4.8,0.,4.8,,0,0.,4.8,0.,4.8
1986-01-25 21:21:43.650 ,5,0,,0,0.,4.8,0.,4.8,,0,0.,4.8,0.,4.8
1986-01-25 21:21:48.450 ,5,0,,0,1.,4.8,0.,4.8,,0,0.,4.8,0.,4.8
1986-01-25 21:21:53.250 ,5,0,,0,0.,4.8,0.,4.8,,0,0.,4.8,0.,4.8
1986-01-25 21:21:58.050 ,5,0,,0,0.,4.8,0.,4.8,,0,0.,4.8,0.,4.8
1986-01-25 21:22:02.850 ,5,0,,0,0.,4.8,0.,4.8,,0,0.,4.8,0.,4.8
1986-01-25 21:22:07.650 ,5,0,,0,0.,4.8,0.,4.8,,0,0.,4.8,0.,4.8
1986-01-25 21:22:12.450 ,5,0,,0,1.,4.8,0.,4.8,,0,0.,4.8,0.,4.8
1986-01-25 21:22:17.250 ,5,0,,0,0.,4.8,0.,4.8,,0,0.,4.8,0.,4.8
1986-01-25 21:22:22.050 ,5,0,,0,0.,4.8,0.,4.8,,0,0.,4.8,0.,4.8
1986-01-25 21:22:26.850 ,6,0,,0,0.,4.8,0.,4.8,,0,0.,4.8,0.,4.8
1986-01-25 21:22:31.650 ,6,0,,0,0.,4.8,0.,4.8,,0,0.,4.8,0.,4.8
1986-01-25 21:22:36.450 ,6,0,,0,3.,4.8,0.,4.8,,0,0.,4.8,0.,4.8
1986-01-25 21:22:41.250 ,6,0,,0,0.,4.8,0.,4.8,,0,0.,4.8,0.,4.8
1986-01-25 21:22:46.050 ,6,0,,0,0.,4.8,0.,4.8,,0,0.,4.8,0.,4.8
1986-01-25 21:22:50.850 ,6,0,,0,1.,4.8,0.,4.8,,0,0.,4.8,0.,4.8
1986-01-25 21:22:55.650 ,6,0,,0,0.,4.8,0.,4.8,,0,0.,4.8,0.,4.8
1986-01-25 21:23:00.450 ,6,0,,0,0.,4.8,0.,4.8,,0,0.,4.8,0.,4.8
1986-01-25 21:23:05.250 ,6,0,,0,2.,4.8,0.,4.8,,0,0.,4.8,0.,4.8
1986-01-25 21:23:10.050 ,6,0,,0,0.,4.8,0.,4.8,,0,0.,4.8,0.,4.8
1986-01-25 21:23:14.850 ,7,0,,0,0.,4.8,0.,4.8,,0,0.,4.8,0.,4.8
1986-01-25 21:23:19.650 ,7,0,,0,0.,4.8,0.,4.8,,0,0.,4.8,0.,4.8
1986-01-25 21:23:24.450 ,7,0,,0,3.,4.8,0.,4.8,,0,0.,4.8,0.,4.8
1986-01-25 21:23:29.250 ,7,0,,0,6.,4.8,0.,4.8,,0,0.,4.8,0.,4.8
1986-01-25 21:23:34.050 ,7,0,,0,2.,4.8,0.,4.8,,0,0.,4.8,0.,4.8
1986-01-25 21:23:38.850 ,7,0,,0,4.,4.8,0.,4.8,,0,0.,4.8,0.,4.8
1986-01-25 21:23:43.650 ,7,0,,0,7.,4.8,0.,4.8,,0,0.,4.8,0.,4.8
1986-01-25 21:23:48.450 ,7,0,,0,11.,4.8,0.,4.8,,0,0.,4.8,0.,4.8
1986-01-25 21:23:53.250 ,7,0,,0,1.,4.8,0.,4.8,,0,0.,4.8,0.,4.8
1986-01-25 21:23:58.050 ,7,0,,0,0.,4.8,0.,4.8,,0,0.,4.8,0.,4.8
1986-01-25 21:24:02.850 ,7,0,,0,0.,4.8,0.,4.8,,0,0.,4.8,0.,4.8
1986-01-25 21:24:07.650 ,7,0,,0,0.,4.8,0.,4.8,,0,0.,4.8,0.,4.8
1986-01-25 21:24:12.450 ,7,0,,0,1.,4.8,0.,4.8,,0,0.,4.8,0.,4.8
1986-01-25 21:24:17.250 ,7,0,,0,7.,4.8,0.,4.8,,0,0.,4.8,0.,4.8
1986-01-25 21:24:22.050 ,7,0,,0,7.,4.8,0.,4.8,,0,0.,4.8,0.,4.8
1986-01-25 21:24:26.850 ,7,0,,0,5.,4.8,0.,4.8,,0,0.,4.8,0.,4.8
1986-01-25 21:24:31.650 ,7,0,,0,7.,4.8,0.,4.8,,0,0.,4.8,0.,4.8
1986-01-25 21:24:36.450 ,7,0,,0,3.,4.8,0.,4.8,,0,0.,4.8,0.,4.8
1986-01-25 21:24:41.250 ,7,0,,0,0.,4.8,0.,4.8,,0,0.,4.8,0.,4.8
1986-01-25 21:24:46.050 ,7,0,,0,0.,4.8,0.,4.8,,0,0.,4.8,0.,4.8
1986-01-25 21:24:50.850 ,6,0,,0,0.,4.8,0.,4.8,,0,0.,4.8,0.,4.8
1986-01-25 21:24:55.650 ,6,0,,0,0.,4.8,0.,4.8,,0,0.,4.8,0.,4.8
1986-01-25 21:25:00.450 ,6,0,,0,0.,4.8,0.,4.8,,0,0.,4.8,0.,4.8
1986-01-25 21:25:05.250 ,6,0,,0,0.,4.8,0.,4.8,,0,0.,4.8,0.,4.8
1986-01-25 21:25:10.050 ,6,0,,0,0.,4.8,0.,4.8,,0,0.,4.8,0.,4.8
1986-01-25 21:25:14.850 ,6,0,,0,1.,4.8,0.,4.8,,0,0.,4.8,0.,4.8
1986-01-25 21:25:19.650 ,6,0,,0,1.,4.8,0.,4.8,,0,0.,4.8,0.,4.8
1986-01-25 21:25:24.450 ,6,0,,0,0.,4.8,0.,4.8,,0,0.,4.8,0.,4.8
1986-01-25 21:25:29.250 ,6,0,,0,1.,4.8,0.,4.8,,0,0.,4.8,0.,4.8
1986-01-25 21:25:34.050 ,6,0,,0,0.,4.8,0.,4.8,,0,0.,4.8,0.,4.8
1986-01-25 21:25:38.850 ,5,0,,0,1.,4.8,0.,4.8,,0,0.,4.8,0.,4.8
1986-01-25 21:25:43.650 ,5,0,,0,1.,4.8,0.,4.8,,0,0.,4.8,0.,4.8
1986-01-25 21:25:48.450 ,5,0,,0,0.,4.8,0.,4.8,,0,0.,4.8,0.,4.8
1986-01-25 21:25:53.250 ,5,0,,0,0.,4.8,0.,4.8,,0,0.,4.8,0.,4.8
1986-01-25 21:25:58.050 ,5,0,,0,0.,4.8,0.,4.8,,0,0.,4.8,0.,4.8
1986-01-25 21:26:02.850 ,5,0,,0,0.,4.8,0.,4.8,,0,0.,4.8,0.,4.8
1986-01-25 21:26:07.650 ,5,0,,0,0.,4.8,0.,4.8,,0,0.,4.8,0.,4.8
1986-01-25 21:26:12.450 ,5,0,,0,0.,4.8,0.,4.8,,0,0.,4.8,0.,4.8
1986-01-25 21:26:17.250 ,5,0,,0,1.,4.8,0.,4.8,,0,0.,4.8,0.,4.8
1986-01-25 21:26:22.050 ,5,0,,0,0.,4.8,0.,4.8,,0,0.,4.8,0.,4.8
1986-01-25 21:26:26.850 ,4,0,,0,1.,4.8,0.,4.8,,0,0.,4.8,0.,4.8
1986-01-25 21:26:31.650 ,4,0,,0,1.,4.8,0.,4.8,,0,0.,4.8,0.,4.8
1986-01-25 21:26:36.450 ,4,0,,0,0.,4.8,0.,4.8,,0,0.,4.8,0.,4.8
1986-01-25 21:26:41.250 ,4,0,,0,1.,4.8,0.,4.8,,0,0.,4.8,0.,4.8
1986-01-25 21:26:46.050 ,4,0,,0,0.,4.8,0.,4.8,,0,0.,4.8,0.,4.8
1986-01-25 21:26:50.850 ,4,0,,0,0.,4.8,0.,4.8,,0,0.,4.8,0.,4.8
1986-01-25 21:26:55.650 ,4,0,,0,0.,4.8,0.,4.8,,0,0.,4.8,0.,4.8
1986-01-25 21:27:00.450 ,4,0,,0,0.,4.8,0.,4.8,,0,0.,4.8,0.,4.8
1986-01-25 21:27:05.250 ,4,0,,0,0.,4.8,0.,4.8,,0,0.,4.8,0.,4.8
1986-01-25 21:27:10.050 ,4,0,,0,0.,4.8,0.,4.8,,0,0.,4.8,0.,4.8
1986-01-25 21:27:14.850 ,3,0,,0,0.,4.8,0.,4.8,,0,0.,4.8,0.,4.8
1986-01-25 21:27:19.650 ,3,0,,0,1.,4.8,0.,4.8,,0,0.,4.8,0.,4.8
1986-01-25 21:27:24.450 ,3,0,,0,0.,4.8,0.,4.8,,0,0.,4.8,0.,4.8
1986-01-25 21:27:29.250 ,3,0,,0,0.,4.8,0.,4.8,,0,0.,4.8,0.,4.8
1986-01-25 21:27:34.050 ,3,0,,0,0.,4.8,0.,4.8,,0,0.,4.8,0.,4.8
1986-01-25 21:27:38.850 ,3,0,,0,0.,4.8,0.,4.8,,0,0.,4.8,0.,4.8
1986-01-25 21:27:43.650 ,3,0,,0,0.,4.8,0.,4.8,,0,0.,4.8,0.,4.8
1986-01-25 21:27:48.450 ,3,0,,0,0.,4.8,0.,4.8,,0,0.,4.8,0.,4.8
1986-01-25 21:27:53.250 ,3,0,,0,0.,4.8,0.,4.8,,0,0.,4.8,0.,4.8
1986-01-25 21:27:58.050 ,3,0,,0,0.,4.8,0.,4.8,,0,0.,4.8,0.,4.8
1986-01-25 21:28:02.850 ,2,0,,0,1.,4.8,0.,4.8,,0,0.,4.8,0.,4.8
1986-01-25 21:28:07.650 ,2,0,,0,1.,4.8,0.,4.8,,0,0.,4.8,0.,4.8
1986-01-25 21:28:12.450 ,2,0,,0,0.,4.8,0.,4.8,,0,0.,4.8,0.,4.8
1986-01-25 21:28:17.250 ,2,0,,0,0.,4.8,0.,4.8,,0,0.,4.8,0.,4.8
1986-01-25 21:28:22.050 ,2,0,,0,0.,4.8,0.,4.8,,0,0.,4.8,0.,4.8
1986-01-25 21:28:26.850 ,2,0,,0,0.,4.8,0.,4.8,,0,0.,4.8,0.,4.8
1986-01-25 21:28:31.650 ,2,0,,0,0.,4.8,0.,4.8,,0,0.,4.8,0.,4.8
1986-01-25 21:28:36.450 ,2,0,,0,2.,4.8,0.,4.8,,0,0.,4.8,0.,4.8
1986-01-25 21:28:41.250 ,2,0,,0,0.,4.8,0.,4.8,,0,0.,4.8,0.,4.8
1986-01-25 21:28:46.050 ,2,0,,0,0.,4.8,0.,4.8,,0,0.,4.8,0.,4.8
1986-01-25 21:28:50.850 ,1,0,,0,1.,4.8,0.,4.8,,0,0.,4.8,0.,4.8
1986-01-25 21:28:55.650 ,1,0,,0,0.,4.8,0.,4.8,,0,0.,4.8,0.,4.8
1986-01-25 21:29:00.450 ,1,0,,0,1.,4.8,0.,4.8,,0,0.,4.8,0.,4.8
1986-01-25 21:29:05.250 ,1,0,,0,0.,4.8,0.,4.8,,0,0.,4.8,0.,4.8
1986-01-25 21:29:10.050 ,1,0,,0,0.,4.8,0.,4.8,,0,0.,4.8,0.,4.8
1986-01-25 21:29:14.850 ,1,0,,0,1.,4.8,0.,4.8,,0,0.,4.8,0.,4.8
1986-01-25 21:29:19.650 ,1,0,,0,0.,4.8,0.,4.8,,0,0.,4.8,0.,4.8
1986-01-25 21:29:24.450 ,1,0,,0,1.,4.8,0.,4.8,,0,0.,4.8,0.,4.8
1986-01-25 21:29:29.250 ,1,0,,0,0.,4.8,0.,4.8,,0,0.,4.8,0.,4.8
1986-01-25 21:29:34.050 ,1,0,,0,1.,4.8,0.,4.8,,0,0.,4.8,0.,4.8
1986-01-25 21:29:38.850 ,0,0,,0,0.,4.8,0.,4.8,,0,0.,4.8,0.,4.8
1986-01-25 21:29:43.650 ,0,0,,0,1.,4.8,0.,4.8,,0,0.,4.8,0.,4.8
1986-01-25 21:29:48.450 ,0,0,,0,0.,4.8,0.,4.8,,0,0.,4.8,0.,4.8
1986-01-25 21:29:53.250 ,0,0,,0,0.,4.8,0.,4.8,,0,0.,4.8,0.,4.8
1986-01-25 21:29:58.050 ,0,0,,0,0.,4.8,0.,4.8,,0,0.,4.8,0.,4.8
1986-01-25 21:30:02.850 ,0,0,,0,0.,4.8,0.,4.8,,0,0.,4.8,0.,4.8
1986-01-25 21:30:07.650 ,0,0,,0,0.,4.8,0.,4.8,,0,0.,4.8,0.,4.8
1986-01-25 21:30:12.450 ,0,0,,0,0.,4.8,0.,4.8,,0,0.,4.8,0.,4.8